Location: Cheching
(60.0667°N, 164.2167°W)
Time: 07:13:42
(UTC+00:00)

XW-2D - Pass Details

Date: 16 January 2021
Orbit: 505 x 525 km, 97.5° (Epoch: 09 March)

Event Time Altitude Azimuth Distance (km) Brightness Sun altitude
Rises 18:24:47 0° 11° (NNE) 2,664 ? -8.7°
Reaches altitude 10° 18:27:05 10° 0° (N) 1,774 ? -8.5°
Maximum altitude 18:30:23 28° 301° (WNW) 1,003 ? -8.1°
Drops below altitude 10° 18:33:41 10° 241° (WSW) 1,771 ? -7.8°
Sets 18:35:58 0° 230° (SW) 2,658 ? -7.5°
